"Pseudo-MPEC" for Wenzen

Created 2024 Dec 2 12:31:37 UT using Find_Orb

Click here for an explanation of pseudo-MPECs

 
 Astrometry: 
     Wenzen *KB2024 11 12.07521506 04 32.55 -36 13 03.5    ~BCBV 21.9 VZNEOCPM58
     Wenzen  KB2024 11 12.08359306 04 32.77 -36 13 03.6    ~BCBV 21.0 VZNEOCPM58
     Wenzen  KB2024 11 12.09197106 04 32.96 -36 13 02.5    ~BCBV 22.0 VZNEOCPM58
     Wenzen  KB2024 11 12.10034906 04 33.13 -36 13 01.6    ~BCBV 21.2 VZNEOCPM58
     Wenzen  KB2024 11 12.10802906 04 33.26 -36 13 00.6    ~BCBV 21.5 VZNEOCPM58

Station data:
(M58) VdS Remote Observatory, Hakos  (S23.236601 E16.361330)  Namibia.

Orbital elements:  Wenzen
   Perihelion 2024 Oct 10.25628 +/- 39.2 TT =  6:09:02 (JD 2460593.75628)
Epoch 2024 Nov 12.0 TT = JDT 2460626.5   Earth MOID: 0.1591   Ju: 0.3344
M   3.01269255 +/- 26               (J2000 ecliptic)             AutoNEOCP
n   0.09200825 +/- 0.199            Peri.  207.41808 +/- 110
a   4.85942466 +/- 7.01             Node   176.88427 +/- 44
e   0.7685693 +/- 0.269             Incl.   20.12224 +/- 12
P  10.71217                H 21.11  G  0.15   U 11.7  SR
q 1.12461959 +/- 0.274    Q 8.59422973 +/- 27.4
From 5 observations 2024 Nov. 12 (47.3 min); mean residual 0".27
Residuals in arcseconds: 
241112 M58  .30-  .40+    241112 M58  .29+  .12-    241112 M58  .29-  .20+    
241112 M58  .18+  .44-    241112 M58  .15+  .03-    

Ephemerides (geocentric):
Date (UTC) HH   RA             Dec           delta  r     elong  mag " sig PA
---- --------  ------------   ------------  ------ ------ -----  --- --------
2024 12 02 13  06 03 31.504   -33 26 05.81  .54327 1.3469 120.7 22.0  64d 115
2024 12 02 14  06 03 30.399   -33 25 28.96  .54351 1.3472 120.7 22.0  65d 115
2024 12 02 15  06 03 29.291   -33 24 52.04  .54376 1.3476 120.8 22.0  65d 115
2024 12 02 16  06 03 28.182   -33 24 15.06  .54400 1.3479 120.8 22.0  65d 115
2024 12 02 17  06 03 27.070   -33 23 38.02  .54425 1.3482 120.8 22.0  65d 115
2024 12 02 18  06 03 25.957   -33 23 00.91  .54449 1.3485 120.8 22.0  65d 115
2024 12 02 19  06 03 24.841   -33 22 23.74  .54474 1.3488 120.8 22.0  65d 115
2024 12 02 20  06 03 23.723   -33 21 46.51  .54498 1.3491 120.9 22.0  65d 115
2024 12 02 21  06 03 22.603   -33 21 09.21  .54523 1.3494 120.9 22.0  65d 115
2024 12 02 22  06 03 21.481   -33 20 31.85  .54548 1.3497 120.9 22.0  65d 115
2024 12 02 23  06 03 20.357   -33 19 54.42  .54572 1.3500 120.9 22.0  65d 114
2024 12 03 00  06 03 19.231   -33 19 16.93  .54597 1.3503 120.9 22.0  66d 114
2024 12 03 01  06 03 18.103   -33 18 39.37  .54621 1.3506 121.0 22.0  66d 114
2024 12 03 02  06 03 16.973   -33 18 01.75  .54646 1.3509 121.0 22.0  66d 114
2024 12 03 03  06 03 15.841   -33 17 24.07  .54670 1.3512 121.0 22.0  66d 114
2024 12 03 04  06 03 14.707   -33 16 46.32  .54695 1.3516 121.0 22.0  66d 114
2024 12 03 05  06 03 13.571   -33 16 08.51  .54720 1.3519 121.0 22.0  66d 114
2024 12 03 06  06 03 12.433   -33 15 30.64  .54744 1.3522 121.1 22.0  66d 114
2024 12 03 07  06 03 11.293   -33 14 52.70  .54769 1.3525 121.1 22.0  66d 114
2024 12 03 08  06 03 10.151   -33 14 14.70  .54794 1.3528 121.1 22.0  66d 114
2024 12 03 09  06 03 09.008   -33 13 36.63  .54818 1.3531 121.1 22.0  66d 114
2024 12 03 10  06 03 07.862   -33 12 58.50  .54843 1.3534 121.1 22.0  66d 114
2024 12 03 11  06 03 06.715   -33 12 20.31  .54868 1.3537 121.2 22.0  66d 114
2024 12 03 12  06 03 05.565   -33 11 42.05  .54892 1.3540 121.2 22.0  66d 114
2024 12 03 13  06 03 04.414   -33 11 03.74  .54917 1.3543 121.2 22.0  66d 114
2024 12 03 14  06 03 03.261   -33 10 25.35  .54942 1.3546 121.2 22.0  66d 114
2024 12 03 15  06 03 02.106   -33 09 46.91  .54966 1.3550 121.3 22.0  66d 114
2024 12 03 16  06 03 00.949   -33 09 08.40  .54991 1.3553 121.3 22.0  66d 114
2024 12 03 17  06 02 59.790   -33 08 29.82  .55016 1.3556 121.3 22.0  66d 114
2024 12 03 18  06 02 58.629   -33 07 51.19  .55040 1.3559 121.3 22.0  66d 114
2024 12 03 19  06 02 57.467   -33 07 12.49  .55065 1.3562 121.3 22.0  66d 114
2024 12 03 20  06 02 56.303   -33 06 33.72  .55090 1.3565 121.4 22.0  66d 114
2024 12 03 21  06 02 55.137   -33 05 54.90  .55114 1.3568 121.4 22.0  66d 114
2024 12 03 22  06 02 53.969   -33 05 16.01  .55139 1.3571 121.4 22.0  67d 114
2024 12 03 23  06 02 52.800   -33 04 37.05  .55164 1.3574 121.4 22.0  67d 114
2024 12 04 00  06 02 51.629   -33 03 58.04  .55189 1.3577 121.4 22.0  67d 114
2024 12 04 01  06 02 50.456   -33 03 18.96  .55214 1.3581 121.5 22.0  67d 114
2024 12 04 02  06 02 49.281   -33 02 39.82  .55238 1.3584 121.5 22.0  67d 114
2024 12 04 03  06 02 48.104   -33 02 00.61  .55263 1.3587 121.5 22.0  67d 114
2024 12 04 04  06 02 46.926   -33 01 21.34  .55288 1.3590 121.5 22.0  67d 114
2024 12 04 05  06 02 45.746   -33 00 42.01  .55313 1.3593 121.5 22.0  67d 114
2024 12 04 06  06 02 44.565   -33 00 02.62  .55337 1.3596 121.6 22.0  67d 114
2024 12 04 07  06 02 43.381   -32 59 23.16  .55362 1.3599 121.6 22.0  67d 114
2024 12 04 08  06 02 42.196   -32 58 43.64  .55387 1.3602 121.6 22.0  67d 114
2024 12 04 09  06 02 41.010   -32 58 04.06  .55412 1.3606 121.6 22.0  67d 114
2024 12 04 10  06 02 39.822   -32 57 24.42  .55437 1.3609 121.6 22.0  67d 114
2024 12 04 11  06 02 38.632   -32 56 44.71  .55462 1.3612 121.7 22.0  67d 114
2024 12 04 12  06 02 37.440   -32 56 04.94  .55486 1.3615 121.7 22.0  68d 114